Location: Holmbach
(49.5093°N, 8.8411°E)
Time: 15:48:03
(UTC+00:00)

NOSS 3-1 (C) - Pass Details

Date: 17 June 2025
Orbit: 625 x 1577 km, 63.4° (Epoch: 18 June)

Event Time Altitude Azimuth Distance (km) Brightness Sun altitude
Rises 21:59:51 0° 316° (NW) 3,765 7.9 -14.6°
Reaches altitude 10° 22:02:15 10° 314° (NW) 2,935 7.0 -14.8°
Maximum altitude 22:09:18 66° 234° (SW) 1,382 4.2 -15.1°
Enters shadow 22:15:33 20° 159° (SSE) 2,783 5.2 -15.4°
